Year,Month,Day,Hour,Minute,Value (Times are PST for temperature in C)
2018,01,22,00,00,4.10
2018,01,22,00,01,4.10
2018,01,22,00,02,4.10
2018,01,22,00,03,4.10
2018,01,22,00,04,4.10
2018,01,22,00,05,4.10
2018,01,22,00,06,4.10
2018,01,22,00,07,4.10
2018,01,22,00,08,4.10
2018,01,22,00,09,4.10
2018,01,22,00,10,4.20
2018,01,22,00,11,4.20
2018,01,22,00,12,4.20
2018,01,22,00,13,4.20
2018,01,22,00,14,4.20
2018,01,22,00,15,4.30
2018,01,22,00,16,4.30
2018,01,22,00,17,4.30
2018,01,22,00,18,4.30
2018,01,22,00,19,4.30
2018,01,22,00,20,4.30
2018,01,22,00,21,4.40
2018,01,22,00,22,4.40
2018,01,22,00,23,4.50
2018,01,22,00,24,4.50
2018,01,22,00,25,4.50
2018,01,22,00,26,4.60
2018,01,22,00,27,4.60
2018,01,22,00,28,4.60
2018,01,22,00,29,4.70
2018,01,22,00,30,4.70
2018,01,22,00,31,4.70
2018,01,22,00,32,4.70
2018,01,22,00,33,4.70
2018,01,22,00,34,4.70
2018,01,22,00,35,4.70
2018,01,22,00,36,4.70
2018,01,22,00,37,4.70
2018,01,22,00,38,4.70
2018,01,22,00,39,4.70
2018,01,22,00,40,4.70
2018,01,22,00,41,4.70
2018,01,22,00,42,4.60
2018,01,22,00,43,4.60
2018,01,22,00,44,4.60
2018,01,22,00,45,4.60
2018,01,22,00,46,4.60
2018,01,22,00,47,4.60
2018,01,22,00,48,4.60
2018,01,22,00,49,4.60
2018,01,22,00,50,4.60
2018,01,22,00,51,4.60
2018,01,22,00,52,4.60
2018,01,22,00,53,4.60
2018,01,22,00,54,4.60
2018,01,22,00,55,4.70
2018,01,22,00,56,4.70
2018,01,22,00,57,4.70
2018,01,22,00,58,4.70
2018,01,22,00,59,4.70
2018,01,22,01,00,4.80
2018,01,22,01,01,4.80
2018,01,22,01,02,4.70
2018,01,22,01,03,4.70
2018,01,22,01,04,4.70
2018,01,22,01,05,4.70
2018,01,22,01,06,4.70
2018,01,22,01,07,4.70
2018,01,22,01,08,4.60
2018,01,22,01,09,4.60
2018,01,22,01,10,4.60
2018,01,22,01,11,4.60
2018,01,22,01,12,4.60
2018,01,22,01,13,4.60
2018,01,22,01,14,4.50
2018,01,22,01,15,4.50
2018,01,22,01,16,4.50
2018,01,22,01,17,4.50
2018,01,22,01,18,4.50
2018,01,22,01,19,4.40
2018,01,22,01,20,4.40
2018,01,22,01,21,4.40
2018,01,22,01,22,4.40
2018,01,22,01,23,4.40
2018,01,22,01,24,4.40
2018,01,22,01,25,4.40
2018,01,22,01,26,4.40
2018,01,22,01,27,4.40
2018,01,22,01,28,4.40
2018,01,22,01,29,4.40
2018,01,22,01,30,4.40
2018,01,22,01,31,4.40
2018,01,22,01,32,4.30
2018,01,22,01,33,4.30
2018,01,22,01,34,4.30
2018,01,22,01,35,4.30
2018,01,22,01,36,4.20
2018,01,22,01,37,4.20
2018,01,22,01,38,4.20
2018,01,22,01,39,4.20
2018,01,22,01,40,4.20
2018,01,22,01,41,4.10
2018,01,22,01,42,4.10
2018,01,22,01,43,4.10
2018,01,22,01,44,4.10
2018,01,22,01,45,4.10
2018,01,22,01,46,4.10
2018,01,22,01,47,4.10
2018,01,22,01,48,4.10
2018,01,22,01,49,4.10
2018,01,22,01,50,4.10
2018,01,22,01,51,4.10
2018,01,22,01,52,4.10
2018,01,22,01,53,4.10
2018,01,22,01,54,4.10
2018,01,22,01,55,4.10
2018,01,22,01,56,4.20
2018,01,22,01,57,4.20
2018,01,22,01,58,4.20
2018,01,22,01,59,4.20
2018,01,22,02,00,4.20
2018,01,22,02,01,4.30
2018,01,22,02,02,4.30
2018,01,22,02,03,4.30
2018,01,22,02,04,4.30
2018,01,22,02,05,4.30
2018,01,22,02,06,4.40
2018,01,22,02,07,4.40
2018,01,22,02,08,4.40
2018,01,22,02,09,4.40
2018,01,22,02,10,4.40
2018,01,22,02,11,4.50
2018,01,22,02,12,4.50
2018,01,22,02,13,4.50
2018,01,22,02,14,4.50
2018,01,22,02,15,4.60
2018,01,22,02,16,4.60
2018,01,22,02,17,4.60
2018,01,22,02,18,4.60
2018,01,22,02,19,4.60
2018,01,22,02,20,4.60
2018,01,22,02,21,4.60
2018,01,22,02,22,4.60
2018,01,22,02,23,4.60
2018,01,22,02,24,4.60
2018,01,22,02,25,4.60
2018,01,22,02,26,4.60
2018,01,22,02,27,4.60
2018,01,22,02,28,4.60
2018,01,22,02,29,4.60
2018,01,22,02,30,4.60
2018,01,22,02,31,4.60
2018,01,22,02,32,4.60
2018,01,22,02,33,4.60
2018,01,22,02,34,4.60
2018,01,22,02,35,4.60
2018,01,22,02,36,4.60
2018,01,22,02,37,4.60
2018,01,22,02,38,4.60
2018,01,22,02,39,4.60
2018,01,22,02,40,4.60
2018,01,22,02,41,4.60
2018,01,22,02,42,4.60
2018,01,22,02,43,4.60
2018,01,22,02,44,4.60
2018,01,22,02,45,4.50
2018,01,22,02,46,4.50
2018,01,22,02,47,4.50
2018,01,22,02,48,4.50
2018,01,22,02,49,4.50
2018,01,22,02,50,4.50
2018,01,22,02,51,4.50
2018,01,22,02,52,4.40
2018,01,22,02,53,4.40
2018,01,22,02,54,4.30
2018,01,22,02,55,4.30
2018,01,22,02,56,4.30
2018,01,22,02,57,4.30
2018,01,22,02,58,4.30
2018,01,22,02,59,4.20
2018,01,22,03,00,4.20
2018,01,22,03,01,4.20
2018,01,22,03,02,4.20
2018,01,22,03,03,4.20
2018,01,22,03,04,4.20
2018,01,22,03,05,4.20
2018,01,22,03,06,4.10
2018,01,22,03,07,4.10
2018,01,22,03,08,4.10
2018,01,22,03,09,4.10
2018,01,22,03,10,4.10
2018,01,22,03,11,4.10
2018,01,22,03,12,4.10
2018,01,22,03,13,4.10
2018,01,22,03,14,4.20
2018,01,22,03,15,4.10
2018,01,22,03,16,4.10
2018,01,22,03,17,4.10
2018,01,22,03,18,4.10
2018,01,22,03,19,4.10
2018,01,22,03,20,4.10
2018,01,22,03,21,4.10
2018,01,22,03,22,4.10
2018,01,22,03,23,4.10
2018,01,22,03,24,4.10
2018,01,22,03,25,4.10
2018,01,22,03,26,4.10
2018,01,22,03,27,4.10
2018,01,22,03,28,4.10
2018,01,22,03,29,4.10
2018,01,22,03,30,4.10
2018,01,22,03,31,4.00
2018,01,22,03,32,4.00
2018,01,22,03,33,4.00
2018,01,22,03,34,4.00
2018,01,22,03,35,4.00
2018,01,22,03,36,4.00
2018,01,22,03,37,3.90
2018,01,22,03,38,4.00
2018,01,22,03,39,3.90
2018,01,22,03,40,3.90
2018,01,22,03,41,3.90
2018,01,22,03,42,3.90
2018,01,22,03,43,3.90
2018,01,22,03,44,3.90
2018,01,22,03,45,3.90
2018,01,22,03,46,3.90
2018,01,22,03,47,3.90
2018,01,22,03,48,3.90
2018,01,22,03,49,4.00
2018,01,22,03,50,4.00
2018,01,22,03,51,4.00
2018,01,22,03,52,4.00
2018,01,22,03,53,4.00
2018,01,22,03,54,4.00
2018,01,22,03,55,3.90
2018,01,22,03,56,3.90
2018,01,22,03,57,3.90
2018,01,22,03,58,3.90
2018,01,22,03,59,3.90
2018,01,22,04,00,3.90
2018,01,22,04,01,3.90
2018,01,22,04,02,3.90
2018,01,22,04,03,3.90
2018,01,22,04,04,3.90
2018,01,22,04,05,3.90
2018,01,22,04,06,3.90
2018,01,22,04,07,3.90
2018,01,22,04,08,3.90
2018,01,22,04,09,3.90
2018,01,22,04,10,3.90
2018,01,22,04,11,3.90
2018,01,22,04,12,3.90
2018,01,22,04,13,3.90
2018,01,22,04,14,3.90
2018,01,22,04,15,3.90
2018,01,22,04,16,3.90
2018,01,22,04,17,3.90
2018,01,22,04,18,3.80
2018,01,22,04,19,3.80
2018,01,22,04,20,3.80
2018,01,22,04,21,3.80
2018,01,22,04,22,3.80
2018,01,22,04,23,3.80
2018,01,22,04,24,3.80
2018,01,22,04,25,3.80
2018,01,22,04,26,3.80
2018,01,22,04,27,3.80
2018,01,22,04,28,3.80
2018,01,22,04,29,3.80
2018,01,22,04,30,3.80
2018,01,22,04,31,3.80
2018,01,22,04,32,3.80
2018,01,22,04,33,3.80
2018,01,22,04,34,3.80
2018,01,22,04,35,3.80
2018,01,22,04,36,3.80
2018,01,22,04,37,3.80
2018,01,22,04,38,3.80
2018,01,22,04,39,3.80
2018,01,22,04,40,3.80
2018,01,22,04,41,3.80
2018,01,22,04,42,3.80
2018,01,22,04,43,3.80
2018,01,22,04,44,3.80
2018,01,22,04,45,3.80
2018,01,22,04,46,3.80
2018,01,22,04,47,3.80
2018,01,22,04,48,3.80
2018,01,22,04,49,3.80
2018,01,22,04,50,3.80
2018,01,22,04,51,3.80
2018,01,22,04,52,3.80
2018,01,22,04,53,3.80
2018,01,22,04,54,3.80
2018,01,22,04,55,3.80
2018,01,22,04,56,3.80
2018,01,22,04,57,3.80
2018,01,22,04,58,3.80
2018,01,22,04,59,3.70
2018,01,22,05,00,3.70
2018,01,22,05,01,3.70
2018,01,22,05,02,3.70
2018,01,22,05,03,3.70
2018,01,22,05,04,3.70
2018,01,22,05,05,3.70
2018,01,22,05,06,3.70
2018,01,22,05,07,3.70
2018,01,22,05,08,3.70
2018,01,22,05,09,3.70
2018,01,22,05,10,3.70
2018,01,22,05,11,3.70
2018,01,22,05,12,3.60
2018,01,22,05,13,3.60
2018,01,22,05,14,3.60
2018,01,22,05,15,3.60
2018,01,22,05,16,3.60
2018,01,22,05,17,3.60
2018,01,22,05,18,3.60
2018,01,22,05,19,3.50
2018,01,22,05,20,3.50
2018,01,22,05,21,3.50
2018,01,22,05,22,3.50
2018,01,22,05,23,3.50
2018,01,22,05,24,3.40
2018,01,22,05,25,3.40
2018,01,22,05,26,3.40
2018,01,22,05,27,3.40
2018,01,22,05,28,3.30
2018,01,22,05,29,3.30
2018,01,22,05,30,3.30
2018,01,22,05,31,3.30
2018,01,22,05,32,3.30
2018,01,22,05,33,3.30
2018,01,22,05,34,3.30
2018,01,22,05,35,3.30
2018,01,22,05,36,3.30
2018,01,22,05,37,3.30
2018,01,22,05,38,3.30
2018,01,22,05,39,3.30
2018,01,22,05,40,3.30
2018,01,22,05,41,3.40
2018,01,22,05,42,3.40
2018,01,22,05,43,3.40
2018,01,22,05,44,3.40
2018,01,22,05,45,3.40
2018,01,22,05,46,3.40
2018,01,22,05,47,3.40
2018,01,22,05,48,3.40
2018,01,22,05,49,3.40
2018,01,22,05,50,3.40
2018,01,22,05,51,3.40
2018,01,22,05,52,3.40
2018,01,22,05,53,3.40
2018,01,22,05,54,3.40
2018,01,22,05,55,3.40
2018,01,22,05,56,3.40
2018,01,22,05,57,3.40
2018,01,22,05,58,3.40
2018,01,22,05,59,3.40
2018,01,22,06,00,3.40
2018,01,22,06,01,3.40
2018,01,22,06,02,3.40
2018,01,22,06,03,3.40
2018,01,22,06,04,3.40
2018,01,22,06,05,3.40
2018,01,22,06,06,3.40
2018,01,22,06,07,3.40
2018,01,22,06,08,3.40
2018,01,22,06,09,3.40
2018,01,22,06,10,3.30
2018,01,22,06,11,3.30
2018,01,22,06,12,3.30
2018,01,22,06,13,3.30
2018,01,22,06,14,3.30
2018,01,22,06,15,3.30
2018,01,22,06,16,3.30
2018,01,22,06,17,3.30
2018,01,22,06,18,3.30
2018,01,22,06,19,3.30
2018,01,22,06,20,3.30
2018,01,22,06,21,3.30
2018,01,22,06,22,3.30
2018,01,22,06,23,3.30
2018,01,22,06,24,3.30
2018,01,22,06,25,3.30
2018,01,22,06,26,3.30
2018,01,22,06,27,3.30
2018,01,22,06,28,3.20
2018,01,22,06,29,3.20
2018,01,22,06,30,3.20
2018,01,22,06,31,3.20
2018,01,22,06,32,3.20
2018,01,22,06,33,3.20
2018,01,22,06,34,3.20
2018,01,22,06,35,3.20
2018,01,22,06,36,3.10
2018,01,22,06,37,3.10
2018,01,22,06,38,3.10
2018,01,22,06,39,3.10
2018,01,22,06,40,3.10
2018,01,22,06,41,3.10
2018,01,22,06,42,3.00
2018,01,22,06,43,3.00
2018,01,22,06,44,3.00
2018,01,22,06,45,2.90
2018,01,22,06,46,2.90
2018,01,22,06,47,2.90
2018,01,22,06,48,2.90
2018,01,22,06,49,2.80
2018,01,22,06,50,2.80
2018,01,22,06,51,2.80
2018,01,22,06,52,2.70
2018,01,22,06,53,2.70
2018,01,22,06,54,2.70
2018,01,22,06,55,2.70
2018,01,22,06,56,2.70
2018,01,22,06,57,2.70
2018,01,22,06,58,2.60
2018,01,22,06,59,2.60
2018,01,22,07,00,2.60
2018,01,22,07,01,2.60
2018,01,22,07,02,2.60
2018,01,22,07,03,2.60
2018,01,22,07,04,2.60
2018,01,22,07,05,2.60
2018,01,22,07,06,2.50
2018,01,22,07,07,2.50
2018,01,22,07,08,2.50
2018,01,22,07,09,2.50
2018,01,22,07,10,2.50
2018,01,22,07,11,2.50
2018,01,22,07,12,2.40
2018,01,22,07,13,2.40
2018,01,22,07,14,2.40
2018,01,22,07,15,2.40
2018,01,22,07,16,2.40
2018,01,22,07,17,2.40
2018,01,22,07,18,2.40
2018,01,22,07,19,2.40
2018,01,22,07,20,2.30
2018,01,22,07,21,2.30
2018,01,22,07,22,2.30
2018,01,22,07,23,2.20
2018,01,22,07,24,2.20
2018,01,22,07,25,2.20
2018,01,22,07,26,2.20
2018,01,22,07,27,2.10
2018,01,22,07,28,2.10
2018,01,22,07,29,2.10
2018,01,22,07,30,2.10
2018,01,22,07,31,2.10
2018,01,22,07,32,2.00
2018,01,22,07,33,2.00
2018,01,22,07,34,2.00
2018,01,22,07,35,2.00
2018,01,22,07,36,1.90
2018,01,22,07,37,1.90
2018,01,22,07,38,1.90
2018,01,22,07,39,1.90
2018,01,22,07,40,1.90
2018,01,22,07,41,1.90
2018,01,22,07,42,1.90
2018,01,22,07,43,1.90
2018,01,22,07,44,1.80
2018,01,22,07,45,1.90
2018,01,22,07,46,1.90
2018,01,22,07,47,1.90
2018,01,22,07,48,2.00
2018,01,22,07,49,2.00
2018,01,22,07,50,2.00
2018,01,22,07,51,2.10
2018,01,22,07,52,2.10
2018,01,22,07,53,2.00
2018,01,22,07,54,2.00
2018,01,22,07,55,1.90
2018,01,22,07,56,1.90
2018,01,22,07,57,1.90
2018,01,22,07,58,1.80
2018,01,22,07,59,1.80
2018,01,22,08,00,1.80
2018,01,22,08,01,1.80
2018,01,22,08,02,1.80
2018,01,22,08,03,1.80
2018,01,22,08,04,1.80
2018,01,22,08,05,1.70
2018,01,22,08,06,1.70
2018,01,22,08,07,1.70
2018,01,22,08,08,1.70
2018,01,22,08,09,1.70
2018,01,22,08,10,1.70
2018,01,22,08,11,1.60
2018,01,22,08,12,1.60
2018,01,22,08,13,1.60
2018,01,22,08,14,1.60
2018,01,22,08,15,1.60
2018,01,22,08,16,1.60
2018,01,22,08,17,1.60
2018,01,22,08,18,1.60
2018,01,22,08,19,1.60
2018,01,22,08,20,1.50
2018,01,22,08,21,1.50
2018,01,22,08,22,1.40
2018,01,22,08,23,1.30
2018,01,22,08,24,1.30
2018,01,22,08,25,1.30
2018,01,22,08,26,1.30
2018,01,22,08,27,1.30
2018,01,22,08,28,1.30
2018,01,22,08,29,1.30
2018,01,22,08,30,1.30
2018,01,22,08,31,1.30
2018,01,22,08,32,1.30
2018,01,22,08,33,1.40
2018,01,22,08,34,1.50
2018,01,22,08,35,1.70
2018,01,22,08,36,1.80
2018,01,22,08,37,1.80
2018,01,22,08,38,1.80
2018,01,22,08,39,1.80
2018,01,22,08,40,1.90
2018,01,22,08,41,1.80
2018,01,22,08,42,1.90
2018,01,22,08,43,1.90
2018,01,22,08,44,2.00
2018,01,22,08,45,2.20
2018,01,22,08,46,2.30
2018,01,22,08,47,2.40
2018,01,22,08,48,2.40
2018,01,22,08,49,2.40
2018,01,22,08,50,2.40
2018,01,22,08,51,2.30
2018,01,22,08,52,2.20
2018,01,22,08,53,2.00
2018,01,22,08,54,1.90
2018,01,22,08,55,1.90
2018,01,22,08,56,1.90
2018,01,22,08,57,1.90
2018,01,22,08,58,1.90
2018,01,22,08,59,1.90
2018,01,22,09,00,1.90
2018,01,22,09,01,1.90
2018,01,22,09,02,1.90
2018,01,22,09,03,2.00
2018,01,22,09,04,2.00
2018,01,22,09,05,2.10
2018,01,22,09,06,2.10
2018,01,22,09,07,2.10
2018,01,22,09,08,2.20
2018,01,22,09,09,2.20
2018,01,22,09,10,2.30
2018,01,22,09,11,2.30
2018,01,22,09,12,2.40
2018,01,22,09,13,2.50
2018,01,22,09,14,2.50
2018,01,22,09,15,2.50
2018,01,22,09,16,2.60
2018,01,22,09,17,2.60
2018,01,22,09,18,2.60
2018,01,22,09,19,2.70
2018,01,22,09,20,2.70
2018,01,22,09,21,2.80
2018,01,22,09,22,2.80
2018,01,22,09,23,2.80
2018,01,22,09,24,2.90
2018,01,22,09,25,2.90
2018,01,22,09,26,2.90
2018,01,22,09,27,2.90
2018,01,22,09,28,3.00
2018,01,22,09,29,3.00
2018,01,22,09,30,3.00
2018,01,22,09,31,3.00
2018,01,22,09,32,3.00
2018,01,22,09,33,3.10
2018,01,22,09,34,3.10
2018,01,22,09,35,3.20
2018,01,22,09,36,3.30
2018,01,22,09,37,3.40
2018,01,22,09,38,3.50
2018,01,22,09,39,3.50
2018,01,22,09,40,3.60
2018,01,22,09,41,3.60
2018,01,22,09,42,3.60
2018,01,22,09,43,3.70
2018,01,22,09,44,3.70
2018,01,22,09,45,3.70
2018,01,22,09,46,3.80
2018,01,22,09,47,3.80
2018,01,22,09,48,3.90
2018,01,22,09,49,3.90
2018,01,22,09,50,4.00
2018,01,22,09,51,4.00
2018,01,22,09,52,4.10
2018,01,22,09,53,4.20
2018,01,22,09,54,4.20
2018,01,22,09,55,4.30
2018,01,22,09,56,4.40
2018,01,22,09,57,4.40
2018,01,22,09,58,4.50
2018,01,22,09,59,4.50
2018,01,22,10,00,4.60
2018,01,22,10,01,4.60
2018,01,22,10,02,4.60
2018,01,22,10,03,4.60
2018,01,22,10,04,4.60
2018,01,22,10,05,4.60
2018,01,22,10,06,4.60
2018,01,22,10,07,4.70
2018,01,22,10,08,4.70
2018,01,22,10,09,4.70
2018,01,22,10,10,4.80
2018,01,22,10,11,4.80
2018,01,22,10,12,4.80
2018,01,22,10,13,4.80
2018,01,22,10,14,4.80
2018,01,22,10,15,4.80
2018,01,22,10,16,4.80
2018,01,22,10,17,4.90
2018,01,22,10,18,4.90
2018,01,22,10,19,4.90
2018,01,22,10,20,4.90
2018,01,22,10,21,4.90
2018,01,22,10,22,4.90
2018,01,22,10,23,4.90
2018,01,22,10,24,5.00
2018,01,22,10,25,5.00
2018,01,22,10,26,5.00
2018,01,22,10,27,5.00
2018,01,22,10,28,5.00
2018,01,22,10,29,5.10
2018,01,22,10,30,5.10
2018,01,22,10,31,5.10
2018,01,22,10,32,5.20
2018,01,22,10,33,5.20
2018,01,22,10,34,5.20
2018,01,22,10,35,5.20
2018,01,22,10,36,5.30
2018,01,22,10,37,5.30
2018,01,22,10,38,5.20
2018,01,22,10,39,5.20
2018,01,22,10,40,5.20
2018,01,22,10,41,5.20
2018,01,22,10,42,5.20
2018,01,22,10,43,5.30
2018,01,22,10,44,5.30
2018,01,22,10,45,5.30
2018,01,22,10,46,5.30
2018,01,22,10,47,5.30
2018,01,22,10,48,5.30
2018,01,22,10,49,5.30
2018,01,22,10,50,5.30
2018,01,22,10,51,5.30
2018,01,22,10,52,5.30
2018,01,22,10,53,5.30
2018,01,22,10,54,5.40
2018,01,22,10,55,5.40
2018,01,22,10,56,5.50
2018,01,22,10,57,5.50
2018,01,22,10,58,5.60
2018,01,22,10,59,5.70
2018,01,22,11,00,5.80
2018,01,22,11,01,5.80
2018,01,22,11,02,5.90
2018,01,22,11,03,6.00
2018,01,22,11,04,6.10
2018,01,22,11,05,6.10
2018,01,22,11,06,6.20
2018,01,22,11,07,6.20
2018,01,22,11,08,6.20
2018,01,22,11,09,6.30
2018,01,22,11,10,6.30
2018,01,22,11,11,6.30
2018,01,22,11,12,6.30
2018,01,22,11,13,6.40
2018,01,22,11,14,6.40
2018,01,22,11,15,6.50
2018,01,22,11,16,6.50
2018,01,22,11,17,6.60
2018,01,22,11,18,6.60
2018,01,22,11,19,6.60
2018,01,22,11,20,6.60
2018,01,22,11,21,6.60
2018,01,22,11,22,6.60
2018,01,22,11,23,6.70
2018,01,22,11,24,6.70
2018,01,22,11,25,6.80
2018,01,22,11,26,6.80
2018,01,22,11,27,6.90
2018,01,22,11,28,6.90
2018,01,22,11,29,6.90
2018,01,22,11,30,6.90
2018,01,22,11,31,7.00
2018,01,22,11,32,7.10
2018,01,22,11,33,7.10
2018,01,22,11,34,7.10
2018,01,22,11,35,7.10
2018,01,22,11,36,7.10
2018,01,22,11,37,7.10
2018,01,22,11,38,7.10
2018,01,22,11,39,7.10
2018,01,22,11,40,7.10
2018,01,22,11,41,7.00
2018,01,22,11,42,7.00
2018,01,22,11,43,7.00
2018,01,22,11,44,6.90
2018,01,22,11,45,6.90
2018,01,22,11,46,6.90
2018,01,22,11,47,6.90
2018,01,22,11,48,6.90
2018,01,22,11,49,6.90
2018,01,22,11,50,6.90
2018,01,22,11,51,6.80
2018,01,22,11,52,6.80
2018,01,22,11,53,6.80
2018,01,22,11,54,6.80
2018,01,22,11,55,6.80
2018,01,22,11,56,6.80
2018,01,22,11,57,6.80
2018,01,22,11,58,6.80
2018,01,22,11,59,6.90
2018,01,22,12,00,6.90
2018,01,22,12,01,6.90
2018,01,22,12,02,6.90
2018,01,22,12,03,7.00
2018,01,22,12,04,7.00
2018,01,22,12,05,7.00
2018,01,22,12,06,7.00
2018,01,22,12,07,7.00
2018,01,22,12,08,7.10
2018,01,22,12,09,7.10
2018,01,22,12,10,7.10
2018,01,22,12,11,7.20
2018,01,22,12,12,7.20
2018,01,22,12,13,7.30
2018,01,22,12,14,7.30
2018,01,22,12,15,7.30
2018,01,22,12,16,7.40
2018,01,22,12,17,7.40
2018,01,22,12,18,7.40
2018,01,22,12,19,7.40
2018,01,22,12,20,7.40
2018,01,22,12,21,7.40
2018,01,22,12,22,7.40
2018,01,22,12,23,7.40
2018,01,22,12,24,7.50
2018,01,22,12,25,7.50
2018,01,22,12,26,7.60
2018,01,22,12,27,7.60
2018,01,22,12,28,7.60
2018,01,22,12,29,7.60
2018,01,22,12,30,7.60
2018,01,22,12,31,7.70
2018,01,22,12,32,7.70
2018,01,22,12,33,7.70
2018,01,22,12,34,7.70
2018,01,22,12,35,7.70
2018,01,22,12,36,7.70
2018,01,22,12,37,7.80
2018,01,22,12,38,7.90
2018,01,22,12,39,8.00
2018,01,22,12,40,8.00
2018,01,22,12,41,8.00
2018,01,22,12,42,8.00
2018,01,22,12,43,8.00
2018,01,22,12,44,7.90
2018,01,22,12,45,7.80
2018,01,22,12,46,7.80
2018,01,22,12,47,7.80
2018,01,22,12,48,7.80
2018,01,22,12,49,7.80
2018,01,22,12,50,7.80
2018,01,22,12,51,7.80
2018,01,22,12,52,7.80
2018,01,22,12,53,7.80
2018,01,22,12,54,7.80
2018,01,22,12,55,7.80
2018,01,22,12,56,7.80
2018,01,22,12,57,7.80
2018,01,22,12,58,7.80
2018,01,22,12,59,7.80
2018,01,22,13,00,7.80
2018,01,22,13,01,7.80
2018,01,22,13,02,7.70
2018,01,22,13,03,7.70
2018,01,22,13,04,7.70
2018,01,22,13,05,7.60
2018,01,22,13,06,7.60
2018,01,22,13,07,7.60
2018,01,22,13,08,7.50
2018,01,22,13,09,7.50
2018,01,22,13,10,7.50
2018,01,22,13,11,7.50
2018,01,22,13,12,7.50
2018,01,22,13,13,7.50
2018,01,22,13,14,7.50
2018,01,22,13,15,7.40
2018,01,22,13,16,7.50
2018,01,22,13,17,7.50
2018,01,22,13,18,7.50
2018,01,22,13,19,7.60
2018,01,22,13,20,7.60
2018,01,22,13,21,7.60
2018,01,22,13,22,7.60
2018,01,22,13,23,7.60
2018,01,22,13,24,7.70
2018,01,22,13,25,7.70
2018,01,22,13,26,7.70
2018,01,22,13,27,7.70
2018,01,22,13,28,7.70
2018,01,22,13,29,7.70
2018,01,22,13,30,7.70
2018,01,22,13,31,7.60
2018,01,22,13,32,7.60
2018,01,22,13,33,7.60
2018,01,22,13,34,7.60
2018,01,22,13,35,7.60
2018,01,22,13,36,7.60
2018,01,22,13,37,7.60
2018,01,22,13,38,7.60
2018,01,22,13,39,7.60
2018,01,22,13,40,7.60
2018,01,22,13,41,7.60
2018,01,22,13,42,7.70
2018,01,22,13,43,7.60
2018,01,22,13,44,7.70
2018,01,22,13,45,7.70
2018,01,22,13,46,7.70
2018,01,22,13,47,7.70
2018,01,22,13,48,7.80
2018,01,22,13,49,7.80
2018,01,22,13,50,7.80
2018,01,22,13,51,7.90
2018,01,22,13,52,7.90
2018,01,22,13,53,7.90
2018,01,22,13,54,7.90
2018,01,22,13,55,7.80
2018,01,22,13,56,7.80
2018,01,22,13,57,7.80
2018,01,22,13,58,7.70
2018,01,22,13,59,7.70
2018,01,22,14,00,7.60
2018,01,22,14,01,7.60
2018,01,22,14,02,7.50
2018,01,22,14,03,7.50
2018,01,22,14,04,7.40
2018,01,22,14,05,7.40
2018,01,22,14,06,7.40
2018,01,22,14,07,7.40
2018,01,22,14,08,7.30
2018,01,22,14,09,7.30
2018,01,22,14,10,7.30
2018,01,22,14,11,7.30
2018,01,22,14,12,7.30
2018,01,22,14,13,7.30
2018,01,22,14,14,7.30
2018,01,22,14,15,7.30
2018,01,22,14,16,7.30
2018,01,22,14,17,7.30
2018,01,22,14,18,7.30
2018,01,22,14,19,7.30
2018,01,22,14,20,7.30
2018,01,22,14,21,7.30
2018,01,22,14,22,7.30
2018,01,22,14,23,7.40
2018,01,22,14,24,7.40
2018,01,22,14,25,7.30
2018,01,22,14,26,7.30
2018,01,22,14,27,7.30
2018,01,22,14,28,7.30
2018,01,22,14,29,7.30
2018,01,22,14,30,7.30
2018,01,22,14,31,7.30
2018,01,22,14,32,7.30
2018,01,22,14,33,7.30
2018,01,22,14,34,7.30
2018,01,22,14,35,7.30
2018,01,22,14,36,7.30
2018,01,22,14,37,7.30
2018,01,22,14,38,7.30
2018,01,22,14,39,7.30
2018,01,22,14,40,7.30
2018,01,22,14,41,7.30
2018,01,22,14,42,7.30
2018,01,22,14,43,7.30
2018,01,22,14,44,7.30
2018,01,22,14,45,7.30
2018,01,22,14,46,7.30
2018,01,22,14,47,7.30
2018,01,22,14,48,7.30
2018,01,22,14,49,7.30
2018,01,22,14,50,7.30
2018,01,22,14,51,7.30
2018,01,22,14,52,7.30
2018,01,22,14,53,7.30
2018,01,22,14,54,7.30
2018,01,22,14,55,7.30
2018,01,22,14,56,7.40
2018,01,22,14,57,7.40
2018,01,22,14,58,7.40
2018,01,22,14,59,7.40
2018,01,22,15,00,7.40
2018,01,22,15,01,7.40
2018,01,22,15,02,7.50
2018,01,22,15,03,7.50
2018,01,22,15,04,7.50
2018,01,22,15,05,7.50
2018,01,22,15,06,7.50
2018,01,22,15,07,7.50
2018,01,22,15,08,7.50
2018,01,22,15,09,7.50
2018,01,22,15,10,7.50
2018,01,22,15,11,7.50
2018,01,22,15,12,7.60
2018,01,22,15,13,7.60
2018,01,22,15,14,7.60
2018,01,22,15,15,7.60
2018,01,22,15,16,7.60
2018,01,22,15,17,7.60
2018,01,22,15,18,7.60
2018,01,22,15,19,7.60
2018,01,22,15,20,7.60
2018,01,22,15,21,7.60
2018,01,22,15,22,7.60
2018,01,22,15,23,7.60
2018,01,22,15,24,7.60
2018,01,22,15,25,7.60
2018,01,22,15,26,7.60
2018,01,22,15,27,7.60
2018,01,22,15,28,7.50
2018,01,22,15,29,7.50
2018,01,22,15,30,7.50
2018,01,22,15,31,7.50
2018,01,22,15,32,7.50
2018,01,22,15,33,7.50
2018,01,22,15,34,7.50
2018,01,22,15,35,7.50
2018,01,22,15,36,7.50
2018,01,22,15,37,7.50
2018,01,22,15,38,7.40
2018,01,22,15,39,7.40
2018,01,22,15,40,7.40
2018,01,22,15,41,7.40
2018,01,22,15,42,7.40
2018,01,22,15,43,7.40
2018,01,22,15,44,7.40
2018,01,22,15,45,7.40
2018,01,22,15,46,7.40
2018,01,22,15,47,7.30
2018,01,22,15,48,7.30
2018,01,22,15,49,7.30
2018,01,22,15,50,7.30
2018,01,22,15,51,7.30
2018,01,22,15,52,7.30
2018,01,22,15,53,7.30
2018,01,22,15,54,7.30
2018,01,22,15,55,7.30
2018,01,22,15,56,7.30
2018,01,22,15,57,7.30
2018,01,22,15,58,7.30
2018,01,22,15,59,7.30
2018,01,22,16,00,7.30
2018,01,22,16,01,7.30
2018,01,22,16,02,7.30
2018,01,22,16,03,7.30
2018,01,22,16,04,7.30
2018,01,22,16,05,7.30
2018,01,22,16,06,7.20
2018,01,22,16,07,7.20
2018,01,22,16,08,7.20
2018,01,22,16,09,7.20
2018,01,22,16,10,7.20
2018,01,22,16,11,7.20
2018,01,22,16,12,7.20
2018,01,22,16,13,7.20
2018,01,22,16,14,7.10
2018,01,22,16,15,7.10
2018,01,22,16,16,7.10
2018,01,22,16,17,7.10
2018,01,22,16,18,7.10
2018,01,22,16,19,7.10
2018,01,22,16,20,7.10
2018,01,22,16,21,7.00
2018,01,22,16,22,7.00
2018,01,22,16,23,6.90
2018,01,22,16,24,6.90
2018,01,22,16,25,6.90
2018,01,22,16,26,6.90
2018,01,22,16,27,6.90
2018,01,22,16,28,6.80
2018,01,22,16,29,6.80
2018,01,22,16,30,6.80
2018,01,22,16,31,6.80
2018,01,22,16,32,6.80
2018,01,22,16,33,6.80
2018,01,22,16,34,6.70
2018,01,22,16,35,6.70
2018,01,22,16,36,6.70
2018,01,22,16,37,6.70
2018,01,22,16,38,6.70
2018,01,22,16,39,6.70
2018,01,22,16,40,6.60
2018,01,22,16,41,6.60
2018,01,22,16,42,6.60
2018,01,22,16,43,6.60
2018,01,22,16,44,6.60
2018,01,22,16,45,6.50
2018,01,22,16,46,6.50
2018,01,22,16,47,6.50
2018,01,22,16,48,6.50
2018,01,22,16,49,6.40
2018,01,22,16,50,6.40
2018,01,22,16,51,6.40
2018,01,22,16,52,6.40
2018,01,22,16,53,6.40
2018,01,22,16,54,6.40
2018,01,22,16,55,6.40
2018,01,22,16,56,6.30
2018,01,22,16,57,6.30
2018,01,22,16,58,6.30
2018,01,22,16,59,6.30
2018,01,22,17,00,6.30
2018,01,22,17,01,6.20
2018,01,22,17,02,6.20
2018,01,22,17,03,6.10
2018,01,22,17,04,6.10
2018,01,22,17,05,6.10
2018,01,22,17,06,6.00
2018,01,22,17,07,6.00
2018,01,22,17,08,5.90
2018,01,22,17,09,5.80
2018,01,22,17,10,5.80
2018,01,22,17,11,5.80
2018,01,22,17,12,5.70
2018,01,22,17,13,5.70
2018,01,22,17,14,5.70
2018,01,22,17,15,5.60
2018,01,22,17,16,5.60
2018,01,22,17,17,5.60
2018,01,22,17,18,5.50
2018,01,22,17,19,5.50
2018,01,22,17,20,5.50
2018,01,22,17,21,5.40
2018,01,22,17,22,5.40
2018,01,22,17,23,5.40
2018,01,22,17,24,5.40
2018,01,22,17,25,5.40
2018,01,22,17,26,5.40
2018,01,22,17,27,5.40
2018,01,22,17,28,5.40
2018,01,22,17,29,5.30
2018,01,22,17,30,5.30
2018,01,22,17,31,5.30
2018,01,22,17,32,5.30
2018,01,22,17,33,5.30
2018,01,22,17,34,5.30
2018,01,22,17,35,5.20
2018,01,22,17,36,5.20
2018,01,22,17,37,5.10
2018,01,22,17,38,5.10
2018,01,22,17,39,5.00
2018,01,22,17,40,5.00
2018,01,22,17,41,5.00
2018,01,22,17,42,4.90
2018,01,22,17,43,4.90
2018,01,22,17,44,4.80
2018,01,22,17,45,4.80
2018,01,22,17,46,4.80
2018,01,22,17,47,4.80
2018,01,22,17,48,4.80
2018,01,22,17,49,4.70
2018,01,22,17,50,4.70
2018,01,22,17,51,4.70
2018,01,22,17,52,4.70
2018,01,22,17,53,4.70
2018,01,22,17,54,4.60
2018,01,22,17,55,4.60
2018,01,22,17,56,4.60
2018,01,22,17,57,4.60
2018,01,22,17,58,4.50
2018,01,22,17,59,4.50
2018,01,22,18,00,4.40
2018,01,22,18,01,4.40
2018,01,22,18,02,4.40
2018,01,22,18,03,4.30
2018,01,22,18,04,4.30
2018,01,22,18,05,4.30
2018,01,22,18,06,4.20